FENGYUN 1C DEB, 31613

Orbit data source: Space-Track

FENGYUN 1C DEB, 31613 is space debris in SSO originally from a launch on Mon, 10 May 1999 UTC launched from the Taiyaun Space Center, China (TSC). Fengyun 1C debris stems from the Chinese weather satellite Fengyun-1C, which was intentionally destroyed by a Chinese anti-satellite missile in 2007. This event dramatically increased the amount of space debris, with thousands of trackable fragments posing hazards to satellites and human spaceflight. The Fengyun 1C debris cloud has become a focal point in discussions about space sustainability and the need for international regulations to prevent the creation of new debris.

Loading next visibility...
Identifier
31613, 1999-025BZT
Orbit
SSO
Country
Flag of CNCN / PRC
Related business
Manufacturer
Unknown
Mission
Spacecraft
Bus & Motor
Unknown
Mass
Unknown
Launch date (UTC)
1999-05-10 (27 years ago)
Launch vehicle
Unknown
Launch site
Taiyaun Space Center, China (TSC)
Object type
Payload
Rocket body
Debris
Shape & HBR
Unknown shape, 0.1 m
Radar Cross Section
Small (<0.1 m²)

Expand to show TLE details & history
Last TLE update: 10 hours ago

TLE from 10 hours ago
0 FENGYUN 1C DEB
1 31613U 99025BZT 26237.88141332  .00001579  00000-0  13511-2 0  9994
2 31613  98.4463  36.5560 0343960 147.4129 214.8763 13.64220285952536
Epoch: 2026-08-25T21:09Z
TLE epoch observation values (Epoch: 2026-08-25T21:09:14.110Z)
Latitude
-0.00007°
Longitude
105.10482°
Altitude
1,234.805 km
Speed
7.133 km/s
True Right ascension
02h 26m 13s
True Declination
0° 00' 00"
Sunlit
Object was in daylight at epoch
Visualization orbit readout
Latitude
Unknown
Longitude
Unknown
Altitude
Unknown
Speed
Unknown
Apparent Right ascension
Unknown
Apparent Declination
Unknown
Sunlit
N/A
Visualization observer readout
Local Sidereal Time
22:15:38
Azimuth
Unknown
Elevation
Unknown
Doppler factor
Unknown
Orbital elements
Apogee altitude
1,271.995 km
Perigee altitude
763.227 km
Semi-major axis
7,395.748 km
Eccentricity
0.0344
Inclination
98.4463°
RAAN
36.556°
Arg. of periapsis
147.4129°
True anomaly
212.69994°
Mean anomaly
214.8763°
Eccentric anomaly
213.78054°
Mean motion
3.41248 °/min
Orbital period
105.5 mins
BSTAR
0.0013511
Loading maneuver chart data...
Computing Atmospheric mass density...
Loading historical data...
Loading historical data...
Loading historical data...
Loading historical data...
Loading historical data...
Loading historical data...
Loading historical data...

Documentation

Showing up to 5 results
|